Latest Coastal Weather Observations for Arlington Reef

IDQ60701

Issued at 4:51 pm EST Tuesday 16 July 2019 (issued every 10 minutes, with the page automatically refreshed every 10 minutes)

About coastal observations | Map of coastal stations | Coastal observations for QLD | Marine services | Other Formats
Station Details ID: 200879 Name: ARLINGTON REEF Lat: -16.72 Lon: 146.11 Height: 0.0 m
Data from the previous 72 hours. | See also: Recent months at Arlington Reef
Date/Time
EST
Wind Sea
Height
m
Swell Vis
km
Cloud Weather Temp
°C
Press
hPa
Rain since
9am
mm
Dir  Spd
kts
Gust
kts
Height
m
Period
s
Dir
16/04:30pm S 22 27 - - - - - - - - 1016.2 -
16/04:00pm S 22 26 - - - - - - - - 1016.1 -
16/03:30pm S 21 26 - - - - - - - - 1016.1 -
16/03:00pm S 23 26 - - - - - - - - 1015.9 -
16/02:30pm S 19 23 - - - - - - - - 1016.4 -
16/02:00pm S 18 21 - - - - - - - - 1016.6 -
16/01:30pm SSE 18 23 - - - - - - - - 1016.9 -
16/01:00pm SSE 19 23 - - - - - - - - 1017.3 -
16/12:30pm SSE 20 23 - - - - - - - - 1017.6 -
16/12:00pm SSE 19 24 - - - - - - - - 1017.8 -
16/11:30am SSE 20 26 - - - - - - - - 1018.3 -
16/11:00am SSE 21 26 - - - - - - - - 1018.5 -
16/10:30am SSE 20 25 - - - - - - - - 1019.0 -
16/10:00am SSE 20 25 - - - - - - - - 1019.0 -
16/09:30am SSE 19 24 - - - - - - - - 1019.1 -
16/09:00am SSE 19 23 - - - - - - - - 1019.0 -
16/08:30am SSE 21 25 - - - - - - - - 1018.9 -
16/08:00am SSE 22 26 - - - - - - - - 1018.5 -
16/07:30am S 22 26 - - - - - - - - 1018.0 -
16/07:00am S 22 26 - - - - - - - - 1017.5 -
16/06:30am S 21 25 - - - - - - - - 1017.3 -
16/06:00am S 21 25 - - - - - - - - 1016.9 -
16/05:30am S 20 25 - - - - - - - - 1016.8 -
16/05:24am S 21 25 - - - - - - - - 1016.7 -
16/05:00am SSE 21 24 - - - - - - - - 1016.6 -
16/04:30am S 19 23 - - - - - - - - 1016.5 -
16/04:00am S 20 23 - - - - - - - - 1016.5 -
16/03:30am S 20 23 - - - - - - - - 1016.4 -
16/03:00am S 20 24 - - - - - - - - 1016.6 -
16/02:30am SSE 18 23 - - - - - - - - 1016.8 -
16/02:00am SSE 20 25 - - - - - - - - 1017.1 -
16/01:30am SSE 21 27 - - - - - - - - 1017.2 -
16/01:00am SSE 21 25 - - - - - - - - 1017.3 -
16/12:30am SSE 21 25 - - - - - - - - 1017.6 -
16/12:00am SE 20 24 - - - - - - - - 1017.8 -
 
Date/Time
EST
Wind Sea
Height
m
Swell Vis
km
Cloud Weather Temp
°C
Press
hPa
Rain since
9am
mm
Dir  Spd
kts
Gust
kts
Height
m
Period
s
Dir
15/11:30pm SSE 21 24 - - - - - - - - 1018.0 -
15/11:00pm SSE 22 27 - - - - - - - - 1018.1 -
15/10:30pm SSE 21 25 - - - - - - - - 1018.3 -
15/10:00pm SSE 22 26 - - - - - - - - 1018.5 -
15/09:30pm SSE 23 27 - - - - - - - - 1018.3 -
15/09:00pm SSE 22 30 - - - - - - - - 1018.4 -
15/08:30pm SSE 22 26 - - - - - - - - 1018.2 -
15/08:00pm SSE 22 25 - - - - - - - - 1017.9 -
15/07:30pm SSE 23 27 - - - - - - - - 1017.7 -
15/07:00pm SSE 23 30 - - - - - - - - 1017.6 -
15/06:30pm SSE 24 29 - - - - - - - - 1017.4 -
15/06:00pm SSE 23 28 - - - - - - - - 1017.2 -
15/05:30pm SSE 24 28 - - - - - - - - 1016.9 -
15/05:00pm SSE 24 29 - - - - - - - - 1016.8 -
15/04:30pm SSE 25 29 - - - - - - - - 1016.6 -
15/04:00pm SSE 24 31 - - - - - - - - 1016.6 -
15/03:30pm SSE 24 30 - - - - - - - - 1016.6 -
15/03:00pm SSE 26 30 - - - - - - - - 1016.6 -
15/02:30pm SSE 24 30 - - - - - - - - 1016.7 -
15/02:00pm SSE 24 28 - - - - - - - - 1016.9 -
15/01:30pm SSE 24 29 - - - - - - - - 1017.3 -
15/01:00pm SSE 25 30 - - - - - - - - 1017.6 -
15/12:30pm SSE 24 31 - - - - - - - - 1018.1 -
15/12:00pm SSE 23 28 - - - - - - - - 1018.7 -
15/11:30am SSE 25 30 - - - - - - - - 1018.7 -
15/11:00am SSE 25 29 - - - - - - - - 1019.1 -
15/10:30am SSE 24 29 - - - - - - - - 1019.3 -
15/10:00am SSE 24 29 - - - - - - - - 1019.4 -
15/09:30am SSE 24 29 - - - - - - - - 1019.6 -
15/09:00am SSE 23 29 - - - - - - - - 1019.3 -
15/08:30am SSE 22 26 - - - - - - - - 1019.1 -
15/08:00am SSE 23 27 - - - - - - - - 1018.6 -
15/07:30am SE 22 26 - - - - - - - - 1018.3 -
15/07:00am SSE 22 26 - - - - - - - - 1017.9 -
15/06:30am SSE 21 26 - - - - - - - - 1017.6 -
15/06:00am SSE 22 27 - - - - - - - - 1017.3 -
15/05:30am SSE 22 25 - - - - - - - - 1017.1 -
15/05:00am SSE 22 27 - - - - - - - - 1016.8 -
15/04:30am SSE 22 26 - - - - - - - - 1016.7 -
15/04:00am SSE 22 27 - - - - - - - - 1016.5 -
15/03:30am SSE 22 25 - - - - - - - - 1016.5 -
15/03:00am SSE 22 27 - - - - - - - - 1016.8 -
15/02:30am SSE 22 26 - - - - - - - - 1017.3 -
15/02:00am SSE 23 27 - - - - - - - - 1017.4 -
15/01:30am SSE 21 25 - - - - - - - - 1017.8 -
15/01:00am SSE 22 25 - - - - - - - - 1018.1 -
15/12:30am SE 19 22 - - - - - - - - 1018.5 -
15/12:00am SE 18 22 - - - - - - - - 1018.5 -
 
Date/Time
EST
Wind Sea
Height
m
Swell Vis
km
Cloud Weather Temp
°C
Press
hPa
Rain since
9am
mm
Dir  Spd
kts
Gust
kts
Height
m
Period
s
Dir
14/11:30pm SE 19 22 - - - - - - - - 1018.6 -
14/11:00pm SE 19 23 - - - - - - - - 1018.7 -
14/10:30pm SE 20 23 - - - - - - - - 1019.0 -
14/10:00pm SE 20 24 - - - - - - - - 1019.0 -
14/09:30pm SSE 20 24 - - - - - - - - 1019.0 -
14/09:00pm SSE 21 25 - - - - - - - - 1019.0 -
14/08:30pm SSE 21 25 - - - - - - - - 1018.7 -
14/08:00pm SSE 22 25 - - - - - - - - 1018.4 -
14/07:30pm SSE 22 25 - - - - - - - - 1017.9 -
14/07:00pm SSE 23 28 - - - - - - - - 1017.5 -
14/06:30pm SSE 22 26 - - - - - - - - 1017.3 -
14/06:00pm SSE 23 27 - - - - - - - - 1017.0 -
14/05:30pm SSE 23 27 - - - - - - - - 1016.5 -
14/05:00pm SSE 23 28 - - - - - - - - 1016.3 -
14/04:30pm SSE 24 29 - - - - - - - - 1015.7 -
14/04:00pm SSE 24 27 - - - - - - - - 1015.6 -
14/03:30pm SSE 23 28 - - - - - - - - 1015.6 -
14/03:00pm S 24 28 - - - - - - - - 1015.5 -
14/02:30pm SSE 24 30 - - - - - - - - 1015.7 -
14/02:00pm SSE 24 30 - - - - - - - - 1016.0 -
14/01:30pm S 24 29 - - - - - - - - 1016.3 -
14/01:00pm S 24 27 - - - - - - - - 1016.6 -
14/12:30pm S 24 28 - - - - - - - - 1016.9 -
14/12:00pm S 24 28 - - - - - - - - 1017.3 -
14/11:30am S 21 26 - - - - - - - - 1017.6 -
14/11:00am S 21 25 - - - - - - - - 1017.9 -
14/10:30am S 21 25 - - - - - - - - 1018.2 -
14/10:00am S 21 25 - - - - - - - - 1018.5 -
14/09:30am S 20 24 - - - - - - - - 1018.3 -
14/09:00am S 19 22 - - - - - - - - 1018.3 -
14/08:30am S 20 23 - - - - - - - - 1018.0 -
14/08:00am S 19 23 - - - - - - - - 1017.6 -
14/07:30am S 20 23 - - - - - - - - 1017.2 -
14/07:00am S 19 24 - - - - - - - - 1017.1 -
14/06:30am S 17 20 - - - - - - - - 1016.8 -
14/06:00am S 18 20 - - - - - - - - 1016.5 -
14/05:30am S 17 20 - - - - - - - - 1016.4 -
14/05:00am S 17 19 - - - - - - - - 1016.4 -
14/04:30am S 17 20 - - - - - - - - 1016.3 -
14/04:00am S 17 19 - - - - - - - - 1016.3 -
14/03:30am S 17 19 - - - - - - - - 1016.2 -
14/03:00am S 16 19 - - - - - - - - 1016.6 -
14/02:30am S 16 18 - - - - - - - - 1016.7 -
14/02:00am S 15 17 - - - - - - - - 1017.0 -
14/01:30am SE 16 18 - - - - - - - - 1017.1 -
14/01:00am SE 15 18 - - - - - - - - 1017.3 -
14/12:30am SE 14 17 - - - - - - - - 1017.4 -
14/12:00am SE 17 20 - - - - - - - - 1017.7 -
 
Date/Time
EST
Wind Sea
Height
m
Swell Vis
km
Cloud Weather Temp
°C
Press
hPa
Rain since
9am
mm
Dir  Spd
kts
Gust
kts
Height
m
Period
s
Dir
13/11:30pm SE 17 19 - - - - - - - - 1018.0 -
13/11:00pm SE 17 19 - - - - - - - - 1018.2 -
13/10:30pm SE 18 21 - - - - - - - - 1018.5 -
13/10:00pm SE 17 21 - - - - - - - - 1018.5 -
13/09:30pm SE 18 21 - - - - - - - - 1018.4 -
13/09:00pm SE 19 21 - - - - - - - - 1018.3 -
13/08:30pm SSE 18 21 - - - - - - - - 1018.4 -
13/08:00pm SSE 18 22 - - - - - - - - 1018.2 -
13/07:30pm SSE 19 23 - - - - - - - - 1017.9 -
13/07:00pm SSE 19 21 - - - - - - - - 1017.7 -
13/06:30pm SSE 19 22 - - - - - - - - 1017.1 -
13/06:00pm SSE 19 22 - - - - - - - - 1016.9 -
13/05:30pm SSE 19 23 - - - - - - - - 1016.7 -
13/05:00pm SSE 20 25 - - - - - - - - 1016.5 -

Other formats

Comma delimited format used in spreadsheet applications
http://www.bom.gov.au/fwo/IDQ60701/IDQ60701.94284.axf

JavaScript Object Notation format (JSON) in row-major order
http://www.bom.gov.au/fwo/IDQ60701/IDQ60701.94284.json

Data quality

Most of these data are generated automatically and are frequently updated. Quality checks on data are not normally performed. It is possible for incorrect values to appear. Refer to information at About Latest Weather Observations and please check the disclaimer before using these data.